Location: Newark
(47.5833°N, 8.1500°E)
Time: 00:54:34
(UTC+00:00)

Vanguard 1 - All Passes

Search period start: 27 October 2020 00:00
Search period end: 06 November 2020 00:00
Orbit: 650 x 3833 km, 34.3° (Epoch: 26 October)

Date Brightness Start Highest point End Pass type
(mag) Time Alt. Az. Time Alt. Az. Time Alt. Az.
27 Oct - 09:08:40 10° SSE 09:19:58 17° SE 09:31:39 10° E daylight
27 Oct - 11:22:34 10° SSW 11:42:17 39° SSE 12:00:20 10° E daylight
27 Oct - 13:44:27 10° WSW 14:06:38 53° S 14:22:57 10° ESE daylight
27 Oct - 16:10:17 10° W 16:30:19 48° SSW 16:42:54 10° SE daylight
27 Oct - 18:38:37 10° W 18:50:57 24° SW 18:59:22 10° S visible
28 Oct - 09:25:50 10° S 09:40:07 22° SE 09:55:05 10° E daylight
28 Oct - 11:42:27 10° SW 12:03:00 44° SSE 12:21:34 10° E daylight
28 Oct - 14:05:19 10° WSW 14:27:37 55° S 14:43:42 10° ESE daylight
28 Oct - 16:31:38 10° W 16:50:56 44° SSW 17:03:10 10° SE visible
28 Oct - 19:01:03 10° W 19:10:56 19° SW 19:18:13 10° SSW visible
29 Oct - 09:44:12 10° S 10:00:23 28° SE 10:17:28 10° E daylight
29 Oct - 12:02:39 10° SW 12:23:50 49° SSE 12:42:40 10° E daylight
29 Oct - 14:26:19 10° WSW 14:48:34 55° S 15:04:23 10° ESE daylight
29 Oct - 16:53:06 10° W 17:11:24 39° SSW 17:23:14 10° SSE visible
29 Oct - 19:24:37 10° WSW 19:30:46 13° SW 19:35:51 10° SSW visible
30 Oct - 07:56:31 10° SE 07:59:45 10° ESE 08:03:05 10° ESE daylight
30 Oct - 10:03:15 10° SSW 10:20:45 34° SE 10:39:18 10° E daylight
30 Oct - 12:23:05 10° SW 12:44:45 52° SSE 13:03:40 10° E daylight
30 Oct - 14:47:26 10° W 15:09:28 53° SSW 15:24:58 10° ESE daylight
30 Oct - 17:14:42 10° W 17:31:44 33° SW 17:43:04 10° SSE visible
31 Oct - 08:09:36 10° SSE 08:19:38 16° SE 08:30:44 10° E daylight
31 Oct - 10:22:48 10° SSW 10:41:15 40° SSE 11:00:50 10° E daylight
31 Oct - 12:43:44 10° WSW 13:05:43 55° S 13:24:35 10° ESE daylight
31 Oct - 15:08:38 10° W 15:30:16 50° SSW 15:45:25 10° SE daylight
31 Oct - 17:36:34 10° W 17:51:54 28° SW 18:02:33 10° S visible
01 Nov - 08:26:49 10° S 08:39:37 22° SE 08:54:21 10° E daylight
01 Nov - 10:42:41 10° SW 11:01:54 45° SSE 11:22:09 10° E daylight
01 Nov - 13:04:32 10° WSW 13:26:44 56° S 13:45:25 10° ESE daylight
01 Nov - 15:29:56 10° W 15:50:58 46° SSW 16:05:43 10° SE daylight
01 Nov - 17:58:50 10° W 18:11:54 22° SW 18:21:31 10° S visible
02 Nov - 08:45:14 10° S 08:59:43 27° SE 09:16:51 10° E daylight
02 Nov - 11:02:52 10° SW 11:22:39 49° SSE 11:43:20 10° E daylight
02 Nov - 13:25:28 10° WSW 13:47:43 56° S 14:06:10 10° ESE daylight
02 Nov - 15:51:20 10° W 16:11:31 42° SSW 16:25:49 10° SSE daylight
02 Nov - 18:21:56 10° W 18:31:47 16° SW 18:39:37 10° SSW visible
03 Nov - 09:04:20 10° SSW 09:19:57 33° SE 09:38:49 10° E daylight
03 Nov - 11:23:16 10° SW 11:43:31 53° SSE 12:04:25 10° E daylight
03 Nov - 13:46:30 10° W 14:08:41 55° S 14:26:48 10° ESE daylight
03 Nov - 16:12:52 10° W 16:31:56 36° SW 16:45:39 10° SSE visible
03 Nov - 18:47:33 10° WSW 18:51:32 11° WSW 18:55:10 10° SW visible
04 Nov - 07:11:37 10° SSE 07:19:36 14° ESE 07:28:48 10° E daylight
04 Nov - 09:23:53 10° SSW 09:40:20 39° SSE 10:00:26 10° E daylight
04 Nov - 11:43:51 10° WSW 12:04:28 55° S 12:25:25 10° ESE daylight
04 Nov - 14:07:37 10° W 14:29:34 52° SSW 14:47:18 10° SE daylight
04 Nov - 16:34:39 10° W 16:52:10 30° SW 17:05:09 10° SSE visible
05 Nov - 07:28:40 10° SSE 07:39:27 20° SE 07:52:46 10° E daylight
05 Nov - 09:43:48 10° SW 10:00:52 44° SSE 10:21:51 10° E daylight
05 Nov - 12:04:36 10° WSW 12:25:29 57° S 12:46:21 10° ESE daylight
05 Nov - 14:28:49 10° W 14:50:21 48° SSW 15:07:38 10° SE daylight
05 Nov - 16:56:48 10° W 17:12:16 25° SW 17:24:10 10° S visible
